Location: Bluff Heights
(33.7692°N, 118.1592°W)
Time: 00:27:06
(UTC+00:00)

Tiros 1 - Pass Details

Date: 26 July 2021
Orbit: 630 x 663 km, 48.4° (Epoch: 20 September)

Event Time Altitude Azimuth Distance (km) Brightness Sun altitude
Rises 07:41:32 0° 310° (NW) 2,950 11.1 -36.7°
Reaches altitude 10° 07:44:58 10° 336° (NNW) 2,032 10.4 -36.8°
Maximum altitude 07:47:27 14° 8° (N) 1,768 10.0 -36.8°
Drops below altitude 10° 07:49:55 10° 40° (NE) 2,021 10.1 -36.8°
Enters shadow 07:50:22 - 45° (NE) 2,115 10.2 -36.8°
Sets 07:53:18 0° 66° (ENE) 2,922 - -36.9°
